KJFK

New York/John F Kennedy International Airport

Airport
ICAO code
KJFK
IATA Code
JFK
Summary
ICAO Region
NAM
ICAO Territory
Location

Jamaica, Queens, New York, New York

Serving
New York
Elevation
13 ft
Coordinates
40° 38' 40" N , 73° 46' 58" W
KCC
Airport BS
Bird Strike
Airport LOS
Parallel Runway Operation
Airport RE
Engineered Materials Arresting System
Metar
Observation
KJFK 041451Z 35012KT 10SM FEW050 FEW250 06/M06 A3023 RMK AO2 SLP236 T00561061 56002 $
Station
New York, Kennedy International Airport
Date/Time
2022-12-04 14:51:00
Wind direction
350°
Wind speed
12 kts
Lowest cloud amount
few clouds
Temperature
5.6°C
Dew point
-6.1°C
Humidity
42%
Weather condition
n/a

International airport serving the city of New York, NY, USA.

Climatology

Humid “subtropical” climate (Köppen climate classification Cfa) - characterized by hot, humid summers and cool winters. Significant amounts of precipitation occur in all seasons in most areas. Winter rainfall (and sometimes snowfall) is associated with large storms that the westerlies steer from west to east. Most summer rainfall occurs during thunderstorms.

SKYbrary Partners:

Safety knowledge contributed by: